Regional Weather Roundup
Issued by NWS

Home | Current Version | Previous Version | Text Only | Print | Product List | Glossary Off
Versions: 1 2 3 4 5 6 7 8 9 10 11 12 13 14 15 16 17 18 19 20 21 22 23 24 25 26 27 28 29 30 31 32 33 34 35 36 37 38 39 40 41 42 43 44 45 46 47 48 49 50

000
ASUS43 KMKX 230021
RWRWI

WISCONSIN REGIONAL WEATHER ROUNDUP
NATIONAL WEATHER SERVICE MILWAUKEE/SULLIVAN WI
700 PM CDT SAT JUL 22 2017

NOTE: "FAIR" INDICATES FEW OR NO CLOUDS BELOW 12,000 FEET WITH NO
SIGNIFICANT WEATHER AND/OR OBSTRUCTIONS TO VISIBILITY.

WIZ001-002-006>008-014>016-023>028-230100-
NORTHWEST WISCONSIN

CITY           SKY/WX    TMP DP  RH WIND       PRES   REMARKS
SUPERIOR ARPT  NOT AVBL
ASHLAND        PTSUNNY   70  62  76 E7        29.80F
6HR MIN TEMP:  70; 6HR MAX TEMP:  78;

HAYWARD        PTSUNNY   80  64  58 CALM      29.80F HX  82
6HR MIN TEMP:  78; 6HR MAX TEMP:  84;

SIREN          SUNNY     83  59  44 W8        29.80S HX  83
6HR MIN TEMP:  81; 6HR MAX TEMP:  85;

CUMBERLAND     SUNNY     81  57  44 NW7       29.82S HX  81
RICE LAKE      SUNNY     82  64  52 W6        29.82S HX  84
6HR MIN TEMP:  81; 6HR MAX TEMP:  86;

CHETEK         MOSUNNY   83  66  55 W5        29.80F HX  86
6HR MIN TEMP:  83; 6HR MAX TEMP:  87;

LADYSMITH      MOSUNNY   80  65  59 N8        29.83S HX  82
6HR MIN TEMP:  80; 6HR MAX TEMP:  87;

EAU CLAIRE     PTSUNNY   75  69  81 SW9       29.80S THUNDER
6HR MIN TEMP:  74; 6HR MAX TEMP:  89; 6HR PCP:  0.39;

MENOMONIE      MOSUNNY   81  71  72 S6        29.80F HX  85
6HR MIN TEMP:  79; 6HR MAX TEMP:  87;

NEW RICHMOND   SUNNY     83  62  49 NW8       29.82S HX  84
6HR MIN TEMP:  83; 6HR MAX TEMP:  86;

OSCEOLA        SUNNY     84  59  42 W9        29.83S HX  84
6HR MIN TEMP:  83; 6HR MAX TEMP:  87;

$$

WIZ003>005-009-010-017-018-230100-
NORTH CENTRAL WISCONSIN

CITY           SKY/WX    TMP DP  RH WIND       PRES   REMARKS
MANITOWISH WTR MOSUNNY   77  63  61 NW5       29.82S
6HR MIN TEMP:  76; 6HR MAX TEMP:  83;

ARBOR VITAE    PTSUNNY   78  62  57 NW8       29.81R HX  80
6HR MIN TEMP:  78; 6HR MAX TEMP:  84;

WOODRUFF       PTSUNNY   78  62  57 NW8       29.81R HX  80
6HR MIN TEMP:  78; 6HR MAX TEMP:  84;

RHINELANDER    MOSUNNY   75  65  70 NW3       29.81S
6HR MIN TEMP:  75; 6HR MAX TEMP:  87;

EAGLE RIVER    CLOUDY    79  62  55 N10       29.81R HX  81
6HR MIN TEMP:  78; 6HR MAX TEMP:  82;

LAND O LAKES   MOSUNNY   77  64  64 N7        29.83R
6HR MIN TEMP:  77; 6HR MAX TEMP:  83;

PHILLIPS       MOSUNNY   74  68  83 SW6       29.81S
6HR MIN TEMP:  74; 6HR MAX TEMP:  84;

TOMAHAWK         N/A     81  63  54 NW9       29.80S HX  82
6HR MIN TEMP:  78; 6HR MAX TEMP:  85;

MEDFORD        PTSUNNY   80  67  65 W7        29.81S HX  83
6HR MIN TEMP:  78; 6HR MAX TEMP:  83;

MERRILL        PTSUNNY   83  68  60 W6        29.79S HX  85
6HR MIN TEMP:  80; 6HR MAX TEMP:  86;

$$

WIZ029-030-035-036-043>047-230100-
CENTRAL WISCONSIN

CITY           SKY/WX    TMP DP  RH WIND       PRES   REMARKS
WAUSAU         PTSUNNY   80  66  62 W8        29.77S HX  82
6HR MIN TEMP:  80; 6HR MAX TEMP:  85;

MOSINEE        PTSUNNY   79  70  73 W7        29.80F HX  81
MARSHFIELD     MOSUNNY   79  67  66 W5        29.80S HX  81
6HR MIN TEMP:  79; 6HR MAX TEMP:  86;

STEVENS POINT  SUNNY     82  67  60 W5        29.80S HX  84
6HR MIN TEMP:  79; 6HR MAX TEMP:  85;

WAUPACA        SUNNY     84  70  63 S7        29.78S HX  88
6HR MIN TEMP:  82; 6HR MAX TEMP:  88;

WAUTOMA        MOSUNNY   83  71  67 SW5       29.78F HX  87
6HR MIN TEMP:  78; 6HR MAX TEMP:  85;

WISC RAPIDS    MOSUNNY   84  69  60 W7        29.80S HX  88
6HR MIN TEMP:  79; 6HR MAX TEMP:  88;

CAMP DOUGLAS   NOT AVBL
$$

WIZ011>013-019>022-031-037>040-048>050-230100-
NORTHEAST WISCONSIN

CITY           SKY/WX    TMP DP  RH WIND       PRES   REMARKS
ANTIGO         MOSUNNY   82  67  61 W6        29.80R HX  84
6HR MIN TEMP:  77; 6HR MAX TEMP:  83;

SHAWANO        SUNNY     83  69  61 S3        29.76S HX  87
6HR MIN TEMP:  80; 6HR MAX TEMP:  86;

OCONTO         MOSUNNY   78  67  69 S3        29.76F HX  80
6HR MIN TEMP:  76; 6HR MAX TEMP:  80;

STURGEON BAY     N/A     73  64  73 SE8       29.79F
6HR MIN TEMP:  73; 6HR MAX TEMP:  79;

GREEN BAY      SUNNY     81  69  67 S7        29.77F HX  84
6HR MIN TEMP:  78; 6HR MAX TEMP:  85;

MANITOWOC      SUNNY     74  65  73 SE6       29.79F
6HR MIN TEMP:  74; 6HR MAX TEMP:  79;

APPLETON       MOSUNNY   81  64  57 VRB5      29.76F HX  82
CLINTONVILLE   SUNNY     81  68  65 S5        29.76F HX  83
OSHKOSH        SUNNY     81  70  69 S6        29.78F HX  84
6HR MIN TEMP:  77; 6HR MAX TEMP:  83;

$$

WIZ032>034-041-042-053>061-230100-
SOUTHWEST WISCONSIN

CITY           SKY/WX    TMP DP  RH WIND       PRES   REMARKS
LA CROSSE      SUNNY     85  73  67 S8        29.79F HX  91
6HR MIN TEMP:  78; 6HR MAX TEMP:  87;

SPARTA         SUNNY     81  69  66 CALM      29.81F HX  84
6HR MIN TEMP:  74; 6HR MAX TEMP:  83;

VIROQUA        MOSUNNY   78  73  86 W8        29.85R HX  80
6HR MIN TEMP:  74; 6HR MAX TEMP:  83;

BOSCOBEL       SUNNY     84  71  65 CALM      29.81S HX  89
6HR MIN TEMP:  80; 6HR MAX TEMP:  86;

PRAIRIE DU CHI SUNNY     81  71  71 CALM      29.82R HX  85
6HR MIN TEMP:  78; 6HR MAX TEMP:  83;

PLATTEVILLE    MOSUNNY   82  77  83 W6        29.83S HX  91
6HR MIN TEMP:  80; 6HR MAX TEMP:  84;

$$

WIZ056-057-062-063-064-067-068-230100-
SOUTH CENTRAL WISCONSIN

CITY           SKY/WX    TMP DP  RH WIND       PRES   REMARKS
REEDSBURG      SUNNY     81  71  71 W5        29.81S HX  84
6HR MIN TEMP:  73; 6HR MAX TEMP:  82;

BARABOO/DELLS  SUNNY     82  69  63 SW5       29.81S HX  85
6HR MIN TEMP:  74; 6HR MAX TEMP:  84;

LONE ROCK      SUNNY     82  71  69 W5        29.81R HX  86
6HR MIN TEMP:  77; 6HR MAX TEMP:  84;

MINERAL POINT  SUNNY     82  73  74 N3        29.84R HX  88
MADISON        MOSUNNY   81  70  69 CALM      29.80S HX  84
6HR MIN TEMP:  77; 6HR MAX TEMP:  83;

MIDDLETON      SUNNY     83  70  65 CALM      29.83R HX  86
6HR MIN TEMP:  77; 6HR MAX TEMP:  84;

WATERTOWN      CLOUDY    80  72  75 W3        29.80S HX  84
6HR MIN TEMP:  74; 6HR MAX TEMP:  81; 6HR PCP:  0.01;

MONROE         MOSUNNY   81  70  69 CALM      29.82S HX  84
JANESVILLE     PTSUNNY   82  72  69 CALM      29.80S HX  87
$$

WIZ051-052-058>065-066-070>072-230100-
SOUTHEAST WISCONSIN

CITY           SKY/WX    TMP DP  RH WIND       PRES   REMARKS
MILWAUKEE      MOSUNNY   76  69  79 SE7       29.80S
6HR MIN TEMP:  73; 6HR MAX TEMP:  81;

WAUKESHA       MOSUNNY   79  68  69 NW5       29.81F HX  81
MILWAUKEE/TIMM MOSUNNY   79  66  65 SE5       29.80F HX  81
RACINE         SUNNY     75  69  81 E6        29.82S
6HR MIN TEMP:  74; 6HR MAX TEMP:  80;

KENOSHA        MOSUNNY   77  70  79 E7        29.81S
6HR MIN TEMP:  77; 6HR MAX TEMP:  83;

FOND DU LAC    SUNNY     83  67  58 CALM      29.79F HX  85
6HR MIN TEMP:  76; 6HR MAX TEMP:  84;

SHEBOYGAN      SUNNY     76  66  71 SE6       29.79F
6HR MIN TEMP:  76; 6HR MAX TEMP:  81;

WEST BEND      MOSUNNY   73  70  88 SE7       29.80S
JUNEAU         SUNNY     79  69  71 CALM      29.82S HX  81
6HR MIN TEMP:  74; 6HR MAX TEMP:  80; 6HR PCP:  0.09;

$$

LSZ147-162-230100-
LAKE SUPERIOR

STATION/POSITION TIME  TEMP    WIND        PRES    WAVE
                       AIR SEA DIR/SP/G            HT/PER
                 (UTC) (F)     (DEG/KT/KT) (MB)    (FT/S)
W MID LAKE BUOY  2350   49 48   30/  8/ 10 1009.3F   2/ 4
DEVILS ISLAND    0000   54      60/  9/ 11 1009.8F
PORT WING        0001   59      30/ 14/ 19 1009.5
SAXON HARBOR     2340   64      40/  4/  6 1009.5S
$$

LMZ867-665-643>646-230100-
LAKE MICHIGAN

STATION/POSITION TIME  TEMP    WIND        PRES    WAVE
                       AIR SEA DIR/SP/G            HT/PER
                 (UTC) (F)     (DEG/KT/KT) (MB)    (FT/S)
CHAMBERS ISLAND  2340   75     150/  1/  4 1007.8F
S GREEN BAY BUOY 0000   78 77  120/  4/  4 1008.2F
N MID LAKE BUOY  2350   7



USA.gov is the U.S. government's official web portal to all federal, state and local government web resources and services.